Погода в Мурундаве

Мадагаскар     20°17′34″S   44°16′46″E
темп.,
°C
ветер,
м/с
пор.,
м/с
влажн.,
%
обл.,
%
осадки,
мм/ч
давл.,
гПа
погр.,
м
25 июня, сб
сб2500:00+22ю796419 0.0 1020274
03:00+19юв56622 0.0 1019209
06:00+18юв45650 0.0 1020210
09:00+20в34540 0.0 1022276
12:00+23зсз32460 0.0 1020369
15:00+23з55550 0.0 1018285
18:00+25юз79630 0.0 1020563
21:00+24ююз810730 0.0 1021657
26 июня, вс
вс2600:00+23ююз913630 0.0 1021539
03:00+21ю812710 0.0 1021397
06:00+19ю710700 0.0 1022333
09:00+22юв68521 0.0 1023402
12:00+26зюз12425 0.0 1021344
15:00+24зюз99631 0.0 1019396
18:00+24юз1011610 0.0 1019540
21:00+24юз99740 0.0 1020408
27 июня, пн
пн2700:00+22ююв710482 0.0 1020267
03:00+20юв712540 0.0 1020412
06:00+19юв69660 0.0 1021305
09:00+22вюв57540 0.0 1023404
12:00+26с12410 0.0 1022316
15:00+26з55500 0.0 1020575
18:00+25з55630 0.0 1020141
21:00+24юв813540 0.0 1022675
28 июня, вт
вт2800:00+23вюв1015590 0.0 1022683
03:00+22вюв914600 0.0 1022712
06:00+22вюв913580 0.0 1024696
09:00+23вюв1013500 0.0 1025860
12:00+26вюв79420 0.0 1023929
15:00+28вюв710400 0.0 1021460
18:00+26в712450 0.0 1021456
21:00+22вюв1015540 0.0 1023752
29 июня, ср
ср2900:00+21вюв913530 0.0 1024609
03:00+20вюв712530 0.0 1023525
06:00+19вюв711590 0.0 1024394
09:00+21вюв68490 0.0 1025466
12:00+25в13320 0.0 1023616
15:00+24з65480 0.0 1020352
18:00+24зюз77550 0.0 1021462
21:00+23юз89620 0.0 1022615